sat.trackr.live / text

‹ back to catalog

XINGSHIDAI 20

NORAD 58918 · 2024-024B

PAYLOAD ACTIVE UNKNOWN

§ Identity

Operator
Country
PRC
Launch date
2024-02-03
Launch site
SCSLA
Launch vehicle
Mass (kg)
RCS (m²)

External: N2YO · Heavens-Above · Gunter

§ Orbital elements

Epoch: 2026-09-22T23:49:09.865056Z

Period
94.65 min
Inclination
97.2975°
Eccentricity
0.0016807
Mean motion
15.21337135 rev/d
Perigee alt
490.2 km
Apogee alt
513.4 km
Semi-major
6,879.9 km
B*
2.2270e-4
RAAN
329.3533°
Arg perigee
162.4750°
Mean anomaly
197.7070°
Rev number
14,621

§ Raw data

XINGSHIDAI 201 58918U 24024B   26265.99247529  .00004937  00000+0  22270-3 0  99992 58918  97.2975 329.3533 0016807 162.4750 197.7070 15.21337135146213

JSON: /api/v1/satellites/58918 · /tle

For live sub-satellite position, see the globe view (requires WebGL).

§ Visibility from observer

Set your observer location to see the next 7 days of passes ≥ 10°. The values pass through the URL so the page stays shareable.

No JS? Fill the form by hand. The geolocation button needs JavaScript.